Weather History for Pampa / Mesa Vista, TX

Change the Weather History Date:

Sunday, February 23, 2014

  Actual Average (KBGD) Record (KBGD)
Temperature  
Mean Temperature 39 °F 44 °F  
Max Temperature 48 °F 56 °F 81 °F (1956)
Min Temperature 28 °F 31 °F 7 °F (1960)
Degree Days  
Heating Degree Days 26 22  
Month to date heating degree days 539  
Since 1 July heating degree days 2891  
Cooling Degree Days 0 0  
Month to date cooling degree days 0  
Year to date cooling degree days 0  
Moisture  
Dew Point 22 °F    
Average Humidity 59    
Maximum Humidity 93    
Minimum Humidity 34    
Precipitation  
Precipitation 0.00 in 0.02 in 0.31 in (2005)
Month to date precipitation 0.53  
Year to date precipitation 1.12  
Snow  
Snow 0.00 in - 0.00 in (2011)
Month to date snowfall  
Since 1 July snowfall  
Snow Depth -    
Sea Level Pressure  
Sea Level Pressure 30.09 in    
Wind  
Wind Speed 8 mph (ENE)    
Max Wind Speed 16 mph    
Max Gust Speed 24 mph    
Visibility 10 miles    
Events      
T = Trace of Precipitation, MM = Missing Value Source: NWS Daily Summary

Daily Weather History Graph

Daily Weather History Graph

Search for Another Location

Airport:

Trip Planner

Search our weather history database for the weather conditions in past years. The results will help you decide how hot, cold, wet, or windy it might be!

Date:

Astronomy

Feb. 23, 2014 Rise Set
Actual Time 7:21 AM CST 6:33 PM CST
Civil Twilight 6:55 AM CST 6:59 PM CST
Nautical Twilight 6:26 AM CST 7:29 PM CST
Astronomical Twilight 5:56 AM CST 7:58 PM CST
Moon 2:16 AM CST (2/23) 12:43 PM CST (2/23)
Length of Visible Light 12h 03m
Length of Day
11h 11m
Last Quarter, 38% of the Moon is Illuminated
Feb 23
Last Quarter
Mar 1
New
Mar 8
First Quarter
Mar 16
Full
Mar 23
Last Quarter

Hourly Weather History & Observations

Time (CST) Temp. Windchill Dew Point Humidity Pressure Visibility Wind Dir Wind Speed Gust Speed Precip Events Conditions
12:15 AM 35.6 °F - 17.6 °F 48% 29.87 in 10.0 mi Calm Calm - N/A   Clear
12:35 AM 35.6 °F - 17.6 °F 48% 29.87 in 10.0 mi Calm Calm - N/A   Clear
12:55 AM 33.8 °F 28.6 °F 19.4 °F 56% 29.88 in 10.0 mi NNE 5.8 mph - N/A   Clear
1:15 AM 33.8 °F 28.6 °F 17.6 °F 52% 29.88 in 10.0 mi ENE 5.8 mph - N/A   Clear
1:35 AM 33.8 °F 27.0 °F 19.4 °F 56% 29.88 in 10.0 mi ENE 8.1 mph - N/A   Clear
1:55 AM 33.8 °F 28.6 °F 19.4 °F 56% 29.90 in 10.0 mi ENE 5.8 mph - N/A   Clear
2:15 AM 33.8 °F 28.6 °F 19.4 °F 56% 29.90 in 10.0 mi ENE 5.8 mph - N/A   Clear
2:35 AM 33.8 °F 27.7 °F 19.4 °F 56% 29.91 in 10.0 mi ENE 6.9 mph - N/A   Clear
2:55 AM 32.0 °F 26.4 °F 19.4 °F 60% 29.91 in 10.0 mi ENE 5.8 mph - N/A   Clear
3:15 AM 32.0 °F 27.5 °F 19.4 °F 60% 29.92 in 10.0 mi ENE 4.6 mph - N/A   Clear
3:35 AM 32.0 °F 24.2 °F 19.4 °F 60% 29.94 in 10.0 mi NE 9.2 mph - N/A   Clear
3:55 AM 32.0 °F 24.8 °F 19.4 °F 60% 29.95 in 10.0 mi NE 8.1 mph - N/A   Clear
4:15 AM 32.0 °F 23.6 °F 23.0 °F 69% 29.97 in 10.0 mi NNE 10.4 mph 16.1 mph N/A   Clear
4:40 AM 32.0 °F 23.6 °F 26.6 °F 80% 29.98 in 10.0 mi NNE 10.4 mph - N/A   Clear
4:55 AM 32.0 °F 23.0 °F 28.4 °F 87% 29.99 in 10.0 mi NNE 11.5 mph - N/A   Clear
5:15 AM 30.2 °F 21.3 °F 28.4 °F 93% 30.00 in 10.0 mi NNE 10.4 mph - N/A   Clear
5:35 AM 32.0 °F 23.0 °F 28.4 °F 87% 30.01 in 10.0 mi NNE 11.5 mph - N/A   Mostly Cloudy
5:55 AM 32.0 °F 24.2 °F 28.4 °F 87% 30.04 in 10.0 mi NNE 9.2 mph - N/A   Overcast
6:15 AM 32.0 °F 23.6 °F 28.4 °F 87% 30.05 in 10.0 mi NNE 10.4 mph 17.3 mph N/A   Overcast
6:35 AM 32.0 °F 21.2 °F 28.4 °F 87% 30.07 in 10.0 mi NNE 16.1 mph 21.9 mph N/A   Overcast
6:55 AM 30.2 °F 18.9 °F 28.4 °F 93% 30.08 in 10.0 mi NNE 16.1 mph 21.9 mph N/A   Overcast
7:15 AM 30.2 °F 20.8 °F 28.4 °F 93% 30.09 in 10.0 mi NNE 11.5 mph - N/A   Overcast
7:35 AM 30.2 °F 20.8 °F 26.6 °F 86% 30.10 in 10.0 mi NE 11.5 mph - N/A   Overcast
7:55 AM 30.2 °F 20.8 °F 26.6 °F 86% 30.11 in 10.0 mi NE 11.5 mph 24.2 mph N/A   Overcast
8:15 AM 30.2 °F 20.8 °F 26.6 °F 86% 30.12 in 10.0 mi NNE 11.5 mph - N/A   Overcast
8:35 AM 30.2 °F 19.8 °F 23.0 °F 75% 30.14 in 10.0 mi NNE 13.8 mph - N/A   Overcast
8:55 AM 30.2 °F 20.2 °F 23.0 °F 75% 30.15 in 10.0 mi NNE 12.7 mph 21.9 mph N/A   Scattered Clouds
9:15 AM 32.0 °F 22.5 °F 23.0 °F 69% 30.16 in 10.0 mi NNE 12.7 mph - N/A   Mostly Cloudy
9:35 AM 32.0 °F 22.1 °F 23.0 °F 69% 30.17 in 10.0 mi NE 13.8 mph 18.4 mph N/A   Mostly Cloudy
9:55 AM 33.8 °F 24.8 °F 23.0 °F 65% 30.17 in 10.0 mi NE 12.7 mph 17.3 mph N/A   Scattered Clouds
10:15 AM 33.8 °F 25.3 °F 23.0 °F 65% 30.18 in 10.0 mi North 11.5 mph - N/A   Clear
10:35 AM 33.8 °F 25.8 °F 23.0 °F 65% 30.18 in 10.0 mi North 10.4 mph 18.4 mph N/A   Clear
10:55 AM 35.6 °F 27.1 °F 23.0 °F 60% 30.19 in 10.0 mi NNE 12.7 mph 18.4 mph N/A   Clear
11:15 AM 37.4 °F 29.3 °F 21.2 °F 52% 30.19 in 10.0 mi NE 12.7 mph 18.4 mph N/A   Clear
11:35 AM 37.4 °F 28.5 °F 21.2 °F 52% 30.19 in 10.0 mi NNE 15.0 mph 18.4 mph N/A   Clear
11:55 AM 39.2 °F 31.2 °F 21.2 °F 49% 30.19 in 10.0 mi NNE 13.8 mph 17.3 mph N/A   Clear
12:15 PM 41.0 °F 35.8 °F 21.2 °F 45% 30.19 in 10.0 mi NE 8.1 mph - N/A   Clear
12:35 PM 42.8 °F 36.2 °F 21.2 °F 42% 30.18 in 10.0 mi NE 12.7 mph 19.6 mph N/A   Clear
12:55 PM 42.8 °F 36.6 °F 21.2 °F 42% 30.17 in 10.0 mi ENE 11.5 mph 17.3 mph N/A   Clear
1:15 PM 42.8 °F 35.4 °F 21.2 °F 42% 30.16 in 10.0 mi NE 15.0 mph 18.4 mph N/A   Clear
1:35 PM 44.6 °F 40.2 °F 21.2 °F 39% 30.16 in 10.0 mi East 8.1 mph - N/A   Clear
1:55 PM 44.6 °F 39.2 °F 21.2 °F 39% 30.15 in 10.0 mi NE 10.4 mph 18.4 mph N/A   Clear
2:15 PM 46.4 °F 40.7 °F 21.2 °F 37% 30.14 in 10.0 mi East 12.7 mph 17.3 mph N/A   Clear
2:40 PM 46.4 °F 42.4 °F 21.2 °F 37% 30.13 in 10.0 mi NE 8.1 mph 17.3 mph N/A   Clear
2:55 PM 46.4 °F 41.9 °F 21.2 °F 37% 30.12 in 10.0 mi ENE 9.2 mph - N/A   Clear
3:15 PM 46.4 °F 41.5 °F 21.2 °F 37% 30.12 in 10.0 mi East 10.4 mph 16.1 mph N/A   Clear
3:35 PM 48.2 °F - 21.2 °F 34% 30.12 in 10.0 mi ENE 11.5 mph 16.1 mph N/A   Clear
3:55 PM 48.2 °F - 21.2 °F 34% 30.12 in 10.0 mi East 12.7 mph 16.1 mph N/A   Clear
4:15 PM 46.4 °F 41.1 °F 21.2 °F 37% 30.11 in 10.0 mi ENE 11.5 mph 17.3 mph N/A   Clear
4:35 PM 48.2 °F - 21.2 °F 34% 30.11 in 10.0 mi East 9.2 mph 17.3 mph N/A   Clear
4:55 PM 46.4 °F 41.1 °F 21.2 °F 37% 30.11 in 10.0 mi East 11.5 mph 17.3 mph N/A   Clear
5:15 PM 46.4 °F 41.5 °F 21.2 °F 37% 30.11 in 10.0 mi East 10.4 mph - N/A   Clear
5:35 PM 44.6 °F 39.7 °F 21.2 °F 39% 30.12 in 10.0 mi East 9.2 mph - N/A   Clear
5:55 PM 44.6 °F 41.4 °F 21.2 °F 39% 30.12 in 10.0 mi East 5.8 mph - N/A   Clear
6:20 PM 42.8 °F 38.6 °F 21.2 °F 42% 30.12 in 10.0 mi East 6.9 mph - N/A   Clear
6:35 PM 41.0 °F 35.8 °F 21.2 °F 45% 30.12 in 10.0 mi East 8.1 mph - N/A   Clear
6:55 PM 37.4 °F 32.1 °F 21.2 °F 52% 30.12 in 10.0 mi East 6.9 mph - N/A   Clear
7:15 PM 37.4 °F 32.1 °F 21.2 °F 52% 30.12 in 10.0 mi East 6.9 mph - N/A   Clear
7:35 PM 35.6 °F 30.7 °F 21.2 °F 56% 30.13 in 10.0 mi East 5.8 mph - N/A   Clear
7:55 PM 33.8 °F 29.6 °F 21.2 °F 60% 30.14 in 10.0 mi ESE 4.6 mph - N/A   Clear
8:15 PM 32.0 °F 24.8 °F 21.2 °F 64% 30.14 in 10.0 mi East 8.1 mph - N/A   Clear
8:35 PM 32.0 °F 25.6 °F 21.2 °F 64% 30.15 in 10.0 mi ESE 6.9 mph - N/A   Clear
8:55 PM 32.0 °F 24.8 °F 21.2 °F 64% 30.16 in 10.0 mi ESE 8.1 mph - N/A   Clear
9:15 PM 32.0 °F 25.6 °F 21.2 °F 64% 30.16 in 10.0 mi ESE 6.9 mph - N/A   Clear
9:35 PM 32.0 °F 25.6 °F 21.2 °F 64% 30.17 in 10.0 mi ESE 6.9 mph - N/A   Clear
9:55 PM 32.0 °F 26.4 °F 21.2 °F 64% 30.17 in 10.0 mi ESE 5.8 mph - N/A   Clear
10:15 PM 32.0 °F 25.6 °F 21.2 °F 64% 30.18 in 10.0 mi ESE 6.9 mph - N/A   Clear
10:35 PM 32.0 °F 26.4 °F 21.2 °F 64% 30.18 in 10.0 mi ESE 5.8 mph - N/A   Clear
10:55 PM 30.2 °F 23.4 °F 21.2 °F 69% 30.18 in 10.0 mi ESE 6.9 mph - N/A   Clear
11:15 PM 32.0 °F 27.5 °F 21.2 °F 64% 30.17 in 10.0 mi East 4.6 mph - N/A   Clear
11:35 PM 30.2 °F 26.7 °F 21.2 °F 69% 30.17 in 10.0 mi East 3.5 mph - N/A   Clear
11:55 PM 28.4 °F 23.3 °F 21.2 °F 74% 30.17 in 10.0 mi NE 4.6 mph - N/A   Clear